Regional Weather Roundup
Issued by NWS

Home | Current Version | Previous Version | Graphics & Text | Print | Product List | Glossary On
Versions: 1 2 3 4 5 6 7 8 9 10 11 12 13 14 15 16 17 18 19 20 21 22 23 24 25 26 27 28 29 30 31 32 33 34 35 36 37 38 39 40 41 42 43 44 45 46 47 48 49 50
000
ASUS43 KLMK 261910
RWRKY
KENTUCKY REGIONAL WEATHER ROUNDUP
NATIONAL WEATHER SERVICE LOUISVILLE KY
300 PM EDT SUN APR 26 2015

NOTE "FAIR" INDICATES FEW OR NO CLOUDS BELOW 12,000 FEET
WITH NO SIGNIFICANT WEATHER AND/OR OBSTRUCTIONS TO VISIBILITY.

KYZ001>023-026-027-061>063-070>075-262000-
WESTERN AND SOUTH CENTRAL KENTUCKY

CITY           SKY/WX    TMP DP  RH WIND       PRES   REMARKS
PADUCAH        CLOUDY    61  46  57 N8        29.86F
HENDERSON      SUNNY     61  37  41 N12       29.87S
OWENSBORO      SUNNY     61  39  44 N10       29.86F
HOPKINSVILLE   CLOUDY    54  46  76 N9        29.85S
BOWLING GREEN  MOSUNNY   61  46  57 NE10      29.83F
GLASGOW        SUNNY     60  41  50 NE9G20    29.83S
$$

KYZ024-025-028>034-038-045-046-053-262000-
NORTH CENTRAL KENTUCKY

CITY           SKY/WX    TMP DP  RH WIND       PRES   REMARKS
LOUISVILLE/SDF MOSUNNY   63  36  36 N15G22    29.84F
LOUISVILLE/LOU SUNNY     62  34  35 N12G18    29.85F
FORT KNOX      SUNNY     61  38  42 N8G17     29.82F
$$

KYZ035>037-039>044-047>052-055>060-089>105-262000-
NORTHEAST KENTUCKY

CITY           SKY/WX    TMP DP  RH WIND       PRES   REMARKS
LEXINGTON      MOSUNNY   61  40  45 NE9       29.83S
COVINGTON      MOSUNNY   59  35  40 NW13      29.85S
FRANKFORT      SUNNY     61  36  39 VRB7      29.82S
$$

KYZ054-064>069-076>088-106>120-262000-
SOUTHEAST KENTUCKY

CITY           SKY/WX    TMP DP  RH WIND       PRES   REMARKS
JACKSON        MOSUNNY   58  37  45 CALM      29.78S
LONDON         CLOUDY    59  40  49 NE8       29.79F
SOMERSET       CLOUDY    55  41  58 N7        29.81F
MIDDLESBORO    CLOUDY    52  47  84 N6        29.79S
MONTICELLO     PTCLDY    59  47  64 N8        29.84F
$$




USA.gov is the U.S. government's official web portal to all federal, state and local government web resources and services.